Location: Unspecified
(0.0000°N, 0.0000°E)
Time: 03:55:36
(UTC+00:00)

Vanguard 1 - Pass Details

Date: 16 December 2023
Orbit: 653 x 3826 km, 34.3° (Epoch: 22 February)

Event Time Altitude Azimuth Distance (km) Brightness Sun altitude
Rises 18:18:23 0° 326° (NW) 5,779 14.1 -5.2°
Reaches altitude 10° 18:23:48 10° 344° (NNW) 5,334 13.7 -6.5°
Maximum altitude 18:34:55 20° 25° (NNE) 5,449 13.4 -9.0°
Enters shadow 18:46:39 12° 59° (ENE) 6,586 13.6 -11.7°
Drops below altitude 10° 18:48:53 10° 64° (ENE) 6,856 - -12.2°
Sets 18:57:27 0° 80° (E) 7,959 - -14.2°
